Location: Prague
(50.0830°N, 14.4670°E)
Time: 22:09:21
(UTC+01:00)

BEESAT 2 - Pass Details

Date: 09 December 2021
Orbit: 498 x 514 km, 64.9° (Epoch: 16 January)

Event Time Altitude Azimuth Distance (km) Brightness Sun altitude
Exits shadow 05:21:57 31° 189° (S) 920 ? -22.4°
Drops below altitude 10° 05:24:18 10° 165° (SSE) 1,733 ? -22.0°
Sets 05:26:31 0° 159° (SSE) 2,611 ? -21.7°
